Regional Weather Roundup
Issued by NWS Sterling, VA

Home | Current Version | Previous Version | Graphics & Text | Print | Product List | Glossary On
Versions: 1 2 3 4 5 6 7 8 9 10 11 12 13 14 15 16 17 18 19 20 21 22 23 24 25 26 27 28 29 30 31 32 33 34 35 36 37 38 39 40 41 42 43 44 45 46 47 48 49 50
000
ASUS41 KLWX 222210
RWRLWX

REGIONAL WEATHER ROUNDUP
NATIONAL WEATHER SERVICE BALTIMORE MD/WASHINGTON DC
500 PM EST MON DEC 22 2014

Note: "FAIR" indicates few or no clouds below 12,000 feet
with no significant weather and/or obstructions to visibility.
 TC=TEMPERATURE CELSIUS

 * =Non NWS site. Station does not report precipitation (e.g. rain,
    snow, etc.), thunder, or fog.

DCZ001-MDZ009-015-VAZ040>042-051-053>054-222300-
WASHINGTON METRO

CITY           SKY/WX    TMP DP  RH WIND       PRES   REMARKS
WASHINGTON NAT LGT RAIN  37  34  87 N7        30.18S
DULLES         DRZL/FOG  33  31  92 NW6       30.18R VSB 3/4
ANDREWS AFB    DRIZZLE   34  32  93 N8        30.15S FOG     WCI  27
FT BELVOIR     LGT RAIN  36  34  93 VRB6      30.18R FOG
QUANTICO       LGT RAIN  36  33  89 N6        30.18R FOG
COLLEGE PARK*    N/A     36  34  93 N3        30.17S
LEESBURG*      MIX PCPN  34  34 100 N6        30.20R
MANASSAS*      CLOUDY    34  34 100 N7        30.18  FOG
GAITHERSBURG*  CLOUDY    32  30  93 CALM      30.20R VSB 1

$$

MDZ006>007-011-014-222300-
BALTIMORE METRO

CITY           SKY/WX    TMP DP  RH WIND       PRES   REMARKS
BWI AIRPORT    LGT RAIN  35  33  92 NW5       30.16F FOG
MD SCIENCE CTR   N/A     37  33  85 MISG      30.17R
MARTIN STATE   RAIN      37  36  93 MISG      30.17F
ANNAPOLIS      LGT RAIN  36  33  89 NW5       30.16S FOG
FORT MEADE*    PTCLDY    34  32  93 NW5       30.19S

$$

MDZ012-015-019>023-222300-
MARYLAND EASTERN SHORE

CITY           SKY/WX    TMP DP  RH WIND       PRES   REMARKS
OCEAN CITY     CLOUDY    45  43  93 NE8       30.10F
SALISBURY      LGT RAIN  45  42  89 NE10      30.10F FOG
BAY BRIDGE AP* DRIZZLE   36  36 100 N3        30.15F
CAMBRIDGE*     CLOUDY    41  37  87 N6        30.13R
EASTON*        LGT RAIN  39  39 100 NE8       30.16F FOG

$$

MDZ017>025-222300-
SOUTHERN MARYLAND

CITY           SKY/WX    TMP DP  RH WIND       PRES   REMARKS
PATUXENT RIVER LGT RAIN  38  35  89 N7        30.13R FOG
ST INIGOES     CLOUDY    38  36  92 NW7       30.12R FOG
LEONARDTOWN*   CLOUDY    36  34  93 E5        30.14R

$$

MDZ003>005-222300-
NORTH CENTRAL MARYLAND

CITY           SKY/WX    TMP DP  RH WIND       PRES   REMARKS
FREDERICK*     LGT RAIN  34  30  86 CALM      30.23R VSB 1
HAGERSTOWN APT FRZ RAIN  33  30  88 N7        30.17R FOG
WESTMINSTER*   MIX PCPN  34  30  86 CALM      30.16R

$$

MDZ501>502-222300-
WESTERN MARYLAND

CITY           SKY/WX    TMP DP  RH WIND       PRES   REMARKS
OAKLAND*       CLOUDY    27 N/A N/A SE12G21   29.99R FOG     WCI  16
CUMBERLAND*    CLOUDY    32  32 100 CALM      30.19F

$$

VAZ025>031-222300-
SHENANDOAH VALLEY

CITY           SKY/WX    TMP DP  RH WIND       PRES   REMARKS
WINCHESTER*    MIX PCPN  34  30  86 CALM      30.17R
FRONT ROYAL*   CLOUDY    32  32 100 CALM      30.16R
LURAY*         DRIZZLE   34  34 100 CALM      30.14F
NEW MARKET*    CLOUDY    32  31  96 NE3       30.13F
STAUNTON*      DRIZZLE   34  32  93 N3        30.14S
WAYNESBORO*    CLOUDY    32  32 100 N3        30.11S

$$

WVZ021-048>050-054>055-222300-
EASTERN WEST VIRGINIA PANHANDLE

CITY           SKY/WX    TMP DP  RH WIND       PRES   REMARKS
MARTINSBURG    FRZ RAIN  33  29  85 CALM      30.18R FOG
PETERSBURG*    CLOUDY    32  32 100 CALM      30.15S FOG

$$

VAZ036>039-050-222300-
CENTRAL FOOTHILLS

CITY           SKY/WX    TMP DP  RH WIND       PRES   REMARKS
CHARLOTTESVILL LGT RAIN  34  32  92 NE3       30.14S FOG
CULPEPER*      LGT RAIN  36  34  93 N6          N/A
ORANGE*        MIX PCPN  34  32  93 NW6       30.17R
GORDONSVILLE*  CLOUDY    33  32  96 NE6       30.15R FOG
WARRENTON*     DRIZZLE   34  34 100 N5        30.17R

$$

VAZ055>057-222300-
NORTH AND CENTRAL PIEDMONT

CITY           SKY/WX    TMP DP  RH WIND       PRES   REMARKS
FREDERICKSBRG* HVY RAIN  36  36 100 N7        30.15R
STAFFORD*      LGT RAIN  34  34 100 N8        30.20S WCI  27

$$

NCZ024-NYZ072-PAZ021-071-VAZ022-071-222300-
OTHER REGIONAL OBSERVATIONS

CITY           SKY/WX    TMP DP  RH WIND       PRES   REMARKS
NEW YORK CITY  CLOUDY    42  38  85 VRB6      30.24F
PHILADELPHIA   CLOUDY    42  35  76 NE12G24   30.18F
PITTSBURGH     MOCLDY    42  31  64 E7        29.99R
ROANOKE        DRIZZLE   36  34  92 CALM      30.11S FOG
RICHMOND       LGT RAIN  38  35  89 N13       30.11S FOG
RALEIGH        DRIZZLE   38  35  89 N5        30.08R FOG

$$

ANZ530>537-222300-
MARINE OBSERVATIONS

STATION/POSITION TIME  TEMP    WIND        PRES
                       AIR SEA DIR/SP/G
                 (UTC) (F)     (DEG/KT/KT) (MB)
THOMAS PT LIGHT  2200   37 41   10/ 13/ 15 1021.9S
BALT KEY BRIDGE  2200   37     360/  6/  7 1021.1S
COVE POINT       2200   37      20/ 14/ 17 1020.1S
LEWISETTA        2200   39 41   20/  7/ 10 1019.3R
SOLOMONS ISLAND  2200      42                N/A
PINEY POINT      2200           30/  8/ 10   N/A

$$




USA.gov is the U.S. government's official web portal to all federal, state and local government web resources and services.